[[{"header":{"parameterUnit":"m.s-1","parameterCategory":1,"la1":30.2992,"la2":30.254,"lo1":-89.0895,"lo2":-89.0443,"dy":0.0025,"dx":0.0025,"nx":19,"ny":19,"refTime":"2026-03-09T03:00:00:Z","depth":0,"parameterNumber":2,"parameterNumberName":"U-component_of_WINDS"},"data":[0,0,0,-1.783,-1.7832,-1.7913,-1.7913,-1.8022,-1.8023,0,0,0,0,0,0,0,0,0,0,0,-1.7808,-1.7809,-1.783,-1.7832,-1.7913,-1.7913,-1.8022,-1.8023,0,0,0,0,0,0,0,0,0,0,0,-1.7807,-1.7808,-1.7809,-1.7832,-1.7912,-1.7913,-1.8022,-1.7959,0,0,0,0,0,0,0,0,0,0,-1.788,-1.7861,-1.7808,-1.7809,-1.7833,-1.7912,-1.7913,-1.7956,-1.7963,-1.7988,0,-1.8008,0,-1.8018,-1.8031,-1.8031,0,0,0,-1.7831,-1.7855,-1.7875,-1.7809,-1.7833,-1.7912,-1.7876,-1.796,-1.7968,-1.7997,-1.801,-1.8014,-1.8019,-1.8032,-1.8032,-1.8173,-1.8174,0,0,-1.7827,-1.7824,-1.7869,-1.788,-1.7866,-1.7873,-1.7878,-1.7965,-1.7979,-1.801,-1.8016,-1.8021,-1.8032,-1.8033,-1.8172,-1.8173,0,0,0,-1.7814,-1.7821,-1.7838,-1.7876,-1.789,-1.7876,-1.7882,-1.7975,-1.7981,-1.8017,-1.8022,-1.8033,-1.8034,-1.8172,-1.8173,-1.8203,0,0,0,-1.7812,-1.7813,-1.7837,-1.7835,-1.7888,-1.7933,-1.789,-1.7975,-1.7985,-1.8022,-1.8033,-1.8036,-1.8171,-1.8172,-1.8201,-1.8218,0,0,0,-1.7802,-1.7812,-1.7824,-1.7835,-1.7869,-1.7932,-1.7943,-1.7977,-1.7988,-1.8031,-1.8036,-1.817,-1.8172,-1.8199,-1.8215,-1.8255,0,0,0,-1.7791,-1.7851,-1.7825,-1.7893,-1.7869,-1.795,-1.7942,-1.8003,-1.8043,-1.8034,-1.8171,-1.8173,-1.8198,-1.8213,-1.8252,-1.8288,-1.8302,0,0,-1.7864,-1.7859,-1.79,-1.7879,-1.7963,-1.7937,-1.8027,-1.8068,-1.8076,-1.8141,-1.8144,-1.8202,-1.8215,-1.8254,-1.8384,-1.8395,0,0,0,-1.7922,-1.7952,-1.7975,-1.8012,-1.8045,-1.8074,-1.8101,-1.8117,-1.8172,-1.8108,-1.8227,-1.8235,-1.8258,-1.8276,-1.8285,-1.8306,-1.818,-1.818,-1.818,-1.8021,-1.8028,-1.8096,-1.8112,-1.815,-1.8178,-1.8209,-1.8235,-1.8231,-1.8259,-1.8278,-1.8356,-1.8376,-1.8383,-1.8404,-1.8298,-1.8298,-1.8298,-1.8298,-1.813,-1.8172,-1.8166,-1.8229,-1.8237,-1.8291,-1.8322,-1.8317,-1.8371,-1.8342,-1.8363,-1.833,-1.8395,-1.8414,-1.83,-1.83,-1.83,-1.83,-1.8299,-1.8195,-1.8216,-1.8234,-1.829,-1.8334,-1.8349,-1.84,-1.8406,-1.8411,-1.8432,-1.8453,-1.8453,-1.8453,-1.8442,-1.8442,-1.8442,-1.8443,-1.8443,-1.8443,-1.8255,-1.8274,-1.8316,-1.8356,-1.8381,-1.8416,-1.8447,-1.8473,-1.8504,-1.8504,-1.8504,-1.8498,-1.84,-1.8375,-1.8447,-1.8446,-1.8446,-1.8445,-1.8445,-1.8362,-1.8339,-1.8403,-1.8429,-1.8478,-1.8521,-1.8527,-1.8581,-1.8604,-1.8629,-1.862,-1.8546,-1.8541,-1.8534,-1.8513,-1.8617,-1.8617,-1.8617,-1.8617,-1.8417,-1.8415,-1.8483,-1.8524,-1.8565,-1.8578,-1.8653,-1.8678,-1.8701,-1.8716,-1.8702,-1.8676,-1.8668,-1.8668,-1.8658,-1.8639,-1.8772,-1.8772,-1.8772,-1.8484,-1.8486,-1.8547,-1.8568,-1.8607,-1.8641,-1.8712,-1.8762,-1.8783,-1.8778,-1.8728,-1.8722,-1.8679,-1.8665,-1.8658,-1.8641,-1.8607,0,0]},{"header":{"parameterUnit":"m.s-1","parameterCategory":1,"la1":30.2992,"la2":30.254,"lo1":-89.0895,"lo2":-89.0443,"dy":0.0025,"dx":0.0025,"nx":19,"ny":19,"refTime":"2026-03-09T03:00:00:Z","depth":0,"parameterNumber":3,"parameterNumberName":"V-component_of_WINDS"},"data":[0,0,0,1.6631,1.6632,1.6649,1.6649,1.6673,1.6673,0,0,0,0,0,0,0,0,0,0,0,1.6627,1.6627,1.6631,1.6632,1.6649,1.6649,1.6673,1.6673,0,0,0,0,0,0,0,0,0,0,0,1.6626,1.6627,1.6627,1.6632,1.6649,1.6649,1.6673,1.6659,0,0,0,0,0,0,0,0,0,0,1.6642,1.6638,1.6627,1.6627,1.6632,1.6649,1.6649,1.6658,1.666,1.6665,0,1.667,0,1.6672,1.6674,1.6675,0,0,0,1.6631,1.6637,1.6641,1.6627,1.6632,1.6649,1.6641,1.6659,1.6661,1.6667,1.6671,1.6671,1.6672,1.6675,1.6675,1.6709,1.671,0,0,1.663,1.663,1.664,1.6642,1.664,1.664,1.6642,1.666,1.6664,1.6671,1.6672,1.6673,1.6675,1.6675,1.6709,1.6709,0,0,0,1.6628,1.6629,1.6633,1.6641,1.6644,1.6641,1.6642,1.6663,1.6664,1.6672,1.6673,1.6675,1.6675,1.6709,1.6709,1.6719,0,0,0,1.6627,1.6628,1.6633,1.6633,1.6644,1.6654,1.6645,1.6663,1.6665,1.6673,1.6675,1.6675,1.6709,1.6709,1.6718,1.6723,0,0,0,1.6625,1.6628,1.663,1.6633,1.664,1.6653,1.6656,1.6663,1.6665,1.6675,1.6676,1.6709,1.6709,1.6718,1.6722,1.6733,0,0,0,1.6623,1.6638,1.6631,1.6648,1.664,1.666,1.6656,1.667,1.6679,1.6675,1.6709,1.6709,1.6717,1.6721,1.6732,1.6741,1.6745,0,0,1.6642,1.664,1.665,1.6644,1.6665,1.6657,1.6679,1.6687,1.6688,1.6702,1.6703,1.6718,1.6722,1.6732,1.6768,1.6771,0,0,0,1.6656,1.6664,1.6669,1.6678,1.6686,1.6692,1.6697,1.67,1.6713,1.6695,1.6725,1.6727,1.6733,1.6738,1.674,1.6746,1.6711,1.6711,1.6711,1.6681,1.6683,1.67,1.6704,1.6713,1.6719,1.6726,1.6732,1.6729,1.6736,1.674,1.6762,1.6767,1.6769,1.6774,1.6746,1.6746,1.6746,1.6746,1.6709,1.6719,1.6718,1.6734,1.6736,1.6749,1.6756,1.6754,1.6767,1.6758,1.6764,1.6754,1.6772,1.6777,1.6746,1.6746,1.6746,1.6746,1.6746,1.6725,1.673,1.6735,1.675,1.6761,1.6764,1.6777,1.6778,1.6778,1.6784,1.6788,1.6788,1.6788,1.6786,1.6786,1.6786,1.6787,1.6787,1.6787,1.6739,1.6744,1.6755,1.6766,1.6773,1.6782,1.679,1.6796,1.6804,1.6803,1.6803,1.68,1.6774,1.6767,1.6788,1.6788,1.6787,1.6787,1.6787,1.6765,1.676,1.6777,1.6784,1.6797,1.6809,1.6811,1.6825,1.683,1.6837,1.6833,1.6814,1.6812,1.681,1.6804,1.6833,1.6833,1.6833,1.6833,1.6778,1.6778,1.6797,1.6808,1.682,1.6823,1.6843,1.685,1.6855,1.6859,1.6855,1.6848,1.6846,1.6845,1.6843,1.6837,1.6874,1.6874,1.6874,1.6795,1.6796,1.6812,1.6819,1.683,1.684,1.6858,1.6871,1.6877,1.6876,1.6862,1.686,1.6849,1.6845,1.6842,1.6837,1.6828,0,0]}]]